BAW212 KBOS-EGLL

Flight info

Callsign BAW212
Flight time 5h 43m
Altitude 37000
Route CELTK7 CELTK DCT FRILL DCT BRADD N175G PORTI/M085F390 DCT 47N050W 49N040W 51N030W 53N020W DCT MALOT DCT GISTI/N0484F390 DCT ENJEX DCT AVZAC DCT INFEC DCT JETZI DCT AMFUL DCT ORZEB/N0390F230 P2 SIRIC
Aircraft A388/J-SADE2E3FGHIJ3J4J5M1RWXY/LB1D1

Departure

Time 2026-05-05 11:56
Airport Boston Logan International Airport (KBOS)

Arrival

Time 2026-05-05 17:39
Airport London Heathrow Airport (EGLL)
Time Latitude Longitude Altitude Speed Heading
2026-05-05 11:34 42.37049 -71.02239 30 ft 0 kts 141°
2026-05-05 11:47 42.37055 -71.02246 30 ft 2 kts 146°
2026-05-05 11:47 42.37071 -71.02257 30 ft 3 kts 177°
2026-05-05 11:47 42.37090 -71.02253 29 ft 3 kts 200°
2026-05-05 11:48 42.37123 -71.02254 29 ft 3 kts 121°
2026-05-05 11:48 42.37130 -71.02278 28 ft 3 kts 103°
2026-05-05 11:48 42.37134 -71.02301 26 ft 3 kts 104°
2026-05-05 11:49 42.37140 -71.02326 27 ft 3 kts 118°
2026-05-05 11:49 42.37151 -71.02349 28 ft 3 kts 132°
2026-05-05 11:49 42.37165 -71.02368 28 ft 3 kts 135°
2026-05-05 11:49 42.37179 -71.02387 29 ft 3 kts 135°
2026-05-05 11:50 42.37186 -71.02396 29 ft 0 kts 135°
2026-05-05 11:52 42.37162 -71.02364 27 ft 8 kts 131°
2026-05-05 11:52 42.37137 -71.02294 27 ft 8 kts 89°
2026-05-05 11:52 42.37162 -71.02228 30 ft 9 kts 43°
2026-05-05 11:53 42.37218 -71.02155 30 ft 12 kts 49°
2026-05-05 11:53 42.37236 -71.02054 30 ft 9 kts 95°
2026-05-05 11:53 42.37231 -71.01963 30 ft 10 kts 83°
2026-05-05 11:53 42.37271 -71.01906 30 ft 10 kts 32°
2026-05-05 11:54 42.37337 -71.01863 30 ft 11 kts 26°
2026-05-05 11:54 42.37398 -71.01786 30 ft 10 kts 71°
2026-05-05 11:54 42.37380 -71.01731 30 ft 7 kts 134°
2026-05-05 11:54 42.37379 -71.01729 30 ft 0 kts 134°
2026-05-05 11:55 42.37378 -71.01728 30 ft 1 kts 134°
2026-05-05 11:55 42.37289 -71.01606 30 ft 53 kts 135°
2026-05-05 11:55 42.36835 -71.01003 30 ft 125 kts 135°
2026-05-05 11:55 42.36098 -71.00033 48 ft 165 kts 141°
2026-05-05 11:56 42.35280 -70.98912 516 ft 165 kts 139°
2026-05-05 11:56 42.34540 -70.97723 1058 ft 171 kts 126°
2026-05-05 11:56 42.34092 -70.96199 1519 ft 184 kts 111°
2026-05-05 11:56 42.33753 -70.94447 1799 ft 203 kts 112°
2026-05-05 11:57 42.33352 -70.92531 1981 ft 220 kts 112°
2026-05-05 11:57 42.32911 -70.90465 2215 ft 239 kts 111°
2026-05-05 11:57 42.32444 -70.88213 2627 ft 261 kts 106°
2026-05-05 11:57 42.32345 -70.85642 3025 ft 288 kts 85°
2026-05-05 11:58 42.32819 -70.82965 3697 ft 296 kts 77°
2026-05-05 11:58 42.33205 -70.80233 4490 ft 296 kts 90°
2026-05-05 11:58 42.33065 -70.77489 5289 ft 292 kts 105°
2026-05-05 11:58 42.32684 -70.74815 6058 ft 296 kts 105°
2026-05-05 11:59 42.32317 -70.72057 6803 ft 300 kts 104°
2026-05-05 11:59 42.31958 -70.69257 7541 ft 305 kts 104°
2026-05-05 11:59 42.31596 -70.66410 8263 ft 310 kts 103°
2026-05-05 11:59 42.31233 -70.63524 9025 ft 314 kts 101°
2026-05-05 12:00 42.30981 -70.60569 9767 ft 319 kts 99°
2026-05-05 12:00 42.30735 -70.57567 10358 ft 327 kts 99°
2026-05-05 12:00 42.30473 -70.54458 10575 ft 347 kts 99°
2026-05-05 12:00 42.30189 -70.51132 10790 ft 365 kts 99°
2026-05-05 12:01 42.29896 -70.47692 11299 ft 371 kts 99°
2026-05-05 12:01 42.29599 -70.44214 11937 ft 374 kts 99°
2026-05-05 12:01 42.29299 -70.40710 12590 ft 377 kts 99°
2026-05-05 12:01 42.28995 -70.37185 13244 ft 380 kts 99°
2026-05-05 12:02 42.28687 -70.33625 13864 ft 383 kts 99°
2026-05-05 12:02 42.28375 -70.30037 14430 ft 386 kts 99°
2026-05-05 12:02 42.28063 -70.26466 14971 ft 390 kts 99°
2026-05-05 12:02 42.27743 -70.22814 15508 ft 393 kts 99°
2026-05-05 12:03 42.27419 -70.19133 16060 ft 396 kts 99°
2026-05-05 12:03 42.27091 -70.15421 16596 ft 400 kts 99°
2026-05-05 12:03 42.26759 -70.11678 17122 ft 403 kts 99°
2026-05-05 12:03 42.26332 -70.07926 17616 ft 406 kts 103°
2026-05-05 12:04 42.25833 -70.04161 18139 ft 409 kts 103°
2026-05-05 12:04 42.25337 -70.00367 18539 ft 414 kts 103°
2026-05-05 12:04 42.24836 -69.96528 19017 ft 416 kts 103°
2026-05-05 12:04 42.24339 -69.92726 19485 ft 418 kts 103°
2026-05-05 12:05 42.23830 -69.88853 19939 ft 420 kts 102°
2026-05-05 12:05 42.23449 -69.84927 20343 ft 425 kts 92°
2026-05-05 12:05 42.23751 -69.80949 20791 ft 429 kts 76°
2026-05-05 12:05 42.24770 -69.77173 21262 ft 429 kts 64°
2026-05-05 12:06 42.26046 -69.73516 21682 ft 432 kts 64°
2026-05-05 12:06 42.27316 -69.69831 22131 ft 434 kts 64°
2026-05-05 12:06 42.28583 -69.66126 22580 ft 436 kts 64°
2026-05-05 12:06 42.29836 -69.62452 23019 ft 438 kts 64°
2026-05-05 12:07 42.31111 -69.58705 23455 ft 440 kts 64°
2026-05-05 12:07 42.32390 -69.54940 23848 ft 442 kts 64°
2026-05-05 12:07 42.33673 -69.51160 24207 ft 443 kts 64°
2026-05-05 12:07 42.34954 -69.47377 24605 ft 444 kts 64°
2026-05-05 12:08 42.36245 -69.43562 24923 ft 448 kts 63°
2026-05-05 12:08 42.37544 -69.39721 25293 ft 450 kts 63°
2026-05-05 12:08 42.38847 -69.35861 25701 ft 452 kts 63°
2026-05-05 12:08 42.40137 -69.32033 26080 ft 454 kts 63°
2026-05-05 12:09 42.41447 -69.28142 26508 ft 456 kts 63°
2026-05-05 12:09 42.42764 -69.24222 26950 ft 459 kts 63°
2026-05-05 12:09 42.44087 -69.20279 27378 ft 461 kts 63°
2026-05-05 12:09 42.45415 -69.16316 27811 ft 463 kts 63°
2026-05-05 12:10 42.46746 -69.12337 28267 ft 465 kts 63°
2026-05-05 12:10 42.48085 -69.08332 28722 ft 469 kts 63°
2026-05-05 12:10 42.49434 -69.04289 29095 ft 473 kts 63°
2026-05-05 12:10 42.50789 -69.00221 29558 ft 475 kts 63°
2026-05-05 12:11 42.52150 -68.96130 30012 ft 477 kts 63°
2026-05-05 12:11 42.53499 -68.92070 30399 ft 480 kts 63°
2026-05-05 12:11 42.54870 -68.87934 30799 ft 482 kts 63°
2026-05-05 12:11 42.56247 -68.83776 31185 ft 484 kts 63°
2026-05-05 12:12 42.57626 -68.79605 31601 ft 486 kts 63°
2026-05-05 12:12 42.59010 -68.75411 31960 ft 488 kts 63°
2026-05-05 12:12 42.60401 -68.71192 32337 ft 491 kts 63°
2026-05-05 12:12 42.61796 -68.66954 32680 ft 494 kts 63°
2026-05-05 12:13 42.63181 -68.62739 33056 ft 497 kts 63°
2026-05-05 12:13 42.64590 -68.58444 33414 ft 499 kts 63°
2026-05-05 12:13 42.66002 -68.54131 33785 ft 502 kts 63°
2026-05-05 12:13 42.67422 -68.49789 34132 ft 504 kts 63°
2026-05-05 12:14 42.68846 -68.45424 34459 ft 506 kts 63°
2026-05-05 12:14 42.70274 -68.41043 34829 ft 507 kts 63°
2026-05-05 12:14 42.71700 -68.36661 35255 ft 506 kts 63°
2026-05-05 12:14 42.73122 -68.32281 35700 ft 506 kts 63°
2026-05-05 12:15 42.74542 -68.27903 36122 ft 505 kts 63°
2026-05-05 12:15 42.75940 -68.23586 36527 ft 505 kts 63°
2026-05-05 12:15 42.77350 -68.19223 36952 ft 505 kts 63°
2026-05-05 12:15 42.78763 -68.14845 37375 ft 503 kts 63°
2026-05-05 12:16 42.80168 -68.10484 37783 ft 503 kts 63°
2026-05-05 12:16 42.81568 -68.06135 38192 ft 502 kts 63°
2026-05-05 12:16 42.82967 -68.01778 38593 ft 502 kts 63°
2026-05-05 12:16 42.84364 -67.97423 38900 ft 502 kts 63°
2026-05-05 12:17 42.87164 -67.88676 38992 ft 510 kts 63°
2026-05-05 12:17 42.89965 -67.79880 38999 ft 506 kts 63°
2026-05-05 12:18 42.92767 -67.71064 38994 ft 507 kts 64°
2026-05-05 12:18 42.95563 -67.62235 39013 ft 507 kts 64°
2026-05-05 12:19 42.98352 -67.53400 38997 ft 507 kts 64°
2026-05-05 12:19 43.01112 -67.44625 39006 ft 507 kts 64°
2026-05-05 12:20 43.03888 -67.35773 39003 ft 507 kts 64°
2026-05-05 12:20 43.06657 -67.26911 39002 ft 507 kts 64°
2026-05-05 12:21 43.09420 -67.18040 39007 ft 507 kts 64°
2026-05-05 12:21 43.12154 -67.09231 39004 ft 507 kts 64°
2026-05-05 12:22 43.14907 -67.00349 39007 ft 507 kts 64°
2026-05-05 12:22 43.17603 -66.91422 39006 ft 507 kts 65°
2026-05-05 12:23 43.20281 -66.82493 39006 ft 507 kts 64°
2026-05-05 12:23 43.22966 -66.73616 39005 ft 507 kts 64°
2026-05-05 12:24 43.25669 -66.64674 38998 ft 507 kts 64°
2026-05-05 12:24 43.28366 -66.55722 39004 ft 508 kts 64°
2026-05-05 12:25 43.31058 -66.46756 38990 ft 508 kts 65°
2026-05-05 12:25 43.33727 -66.37834 38994 ft 509 kts 65°
2026-05-05 12:26 43.36405 -66.28850 38995 ft 509 kts 65°
2026-05-05 12:26 43.39081 -66.19836 39012 ft 509 kts 65°
2026-05-05 12:27 43.41744 -66.10816 39007 ft 509 kts 65°
2026-05-05 12:27 43.44397 -66.01793 39012 ft 509 kts 65°
2026-05-05 12:28 43.47029 -65.92812 39016 ft 509 kts 65°
2026-05-05 12:28 43.49671 -65.83763 39014 ft 509 kts 65°
2026-05-05 12:29 43.52306 -65.74706 39021 ft 509 kts 65°
2026-05-05 12:29 43.54918 -65.65695 39014 ft 510 kts 65°
2026-05-05 12:30 43.57541 -65.56613 39018 ft 511 kts 65°
2026-05-05 12:30 43.60163 -65.47503 39020 ft 511 kts 65°
2026-05-05 12:31 43.62780 -65.38378 39022 ft 512 kts 65°
2026-05-05 12:31 43.65394 -65.29230 39029 ft 513 kts 65°
2026-05-05 12:32 43.67985 -65.20127 39033 ft 513 kts 66°
2026-05-05 12:32 43.70590 -65.10942 39028 ft 513 kts 66°
2026-05-05 12:33 43.73186 -65.01757 39028 ft 513 kts 66°
2026-05-05 12:33 43.75760 -64.92612 39027 ft 514 kts 66°
2026-05-05 12:34 43.78347 -64.83392 39028 ft 514 kts 66°
2026-05-05 12:34 43.80926 -64.74163 39022 ft 514 kts 66°
2026-05-05 12:35 43.83496 -64.64931 39018 ft 514 kts 66°
2026-05-05 12:35 43.86042 -64.55752 39016 ft 514 kts 66°
2026-05-05 12:36 43.88598 -64.46500 39021 ft 514 kts 66°
2026-05-05 12:36 43.91152 -64.37224 39022 ft 515 kts 66°
2026-05-05 12:37 43.93696 -64.27949 39023 ft 515 kts 66°
2026-05-05 12:37 43.96235 -64.18653 39046 ft 515 kts 66°
2026-05-05 12:38 43.98754 -64.09397 39028 ft 516 kts 66°
2026-05-05 12:38 44.01286 -64.00061 39027 ft 517 kts 66°
2026-05-05 12:39 44.03811 -63.90711 39028 ft 518 kts 66°
2026-05-05 12:39 44.06335 -63.81329 39027 ft 518 kts 66°
2026-05-05 12:40 44.08839 -63.71985 39035 ft 520 kts 66°
2026-05-05 12:40 44.11358 -63.62548 39027 ft 520 kts 66°
2026-05-05 12:41 44.13868 -63.53107 39032 ft 521 kts 66°
2026-05-05 12:41 44.16375 -63.43639 39024 ft 521 kts 66°
2026-05-05 12:42 44.18861 -63.34213 39027 ft 522 kts 66°
2026-05-05 12:42 44.21361 -63.24701 39032 ft 523 kts 67°
2026-05-05 12:43 44.23855 -63.15169 39035 ft 523 kts 67°
2026-05-05 12:43 44.26343 -63.05623 39043 ft 524 kts 67°
2026-05-05 12:44 44.28821 -62.96076 39048 ft 524 kts 67°
2026-05-05 12:44 44.31280 -62.86564 39025 ft 525 kts 67°
2026-05-05 12:45 44.33749 -62.76974 39023 ft 525 kts 67°
2026-05-05 12:45 44.36212 -62.67369 39027 ft 525 kts 67°
2026-05-05 12:46 44.38669 -62.57749 39039 ft 526 kts 67°
2026-05-05 12:46 44.41102 -62.48181 39029 ft 527 kts 67°
2026-05-05 12:47 44.43550 -62.38517 39037 ft 527 kts 67°
2026-05-05 12:47 44.45992 -62.28832 39042 ft 528 kts 68°
2026-05-05 12:48 44.48430 -62.19129 39039 ft 528 kts 68°
2026-05-05 12:48 44.50846 -62.09470 39039 ft 529 kts 68°
2026-05-05 12:49 44.53270 -61.99734 39039 ft 530 kts 68°
2026-05-05 12:49 44.55690 -61.89974 39042 ft 530 kts 68°
2026-05-05 12:50 44.58103 -61.80202 39041 ft 530 kts 68°
2026-05-05 12:50 44.60493 -61.70485 39039 ft 531 kts 68°
2026-05-05 12:51 44.62890 -61.60691 39035 ft 530 kts 68°
2026-05-05 12:51 44.65277 -61.50899 39034 ft 530 kts 68°
2026-05-05 12:52 44.67658 -61.41091 39033 ft 530 kts 68°
2026-05-05 12:52 44.70015 -61.31337 39051 ft 531 kts 69°
2026-05-05 12:53 44.72379 -61.21516 39031 ft 531 kts 69°
2026-05-05 12:53 44.74735 -61.11677 39028 ft 531 kts 69°
2026-05-05 12:54 44.78255 -60.96902 39033 ft 531 kts 69°
2026-05-05 12:55 44.80578 -60.87102 39025 ft 532 kts 69°
2026-05-05 12:55 44.82910 -60.77213 39032 ft 532 kts 70°
2026-05-05 12:56 44.85234 -60.67316 39033 ft 532 kts 70°
2026-05-05 12:56 44.87551 -60.57401 39032 ft 533 kts 70°
2026-05-05 12:57 44.89848 -60.47534 39032 ft 533 kts 70°
2026-05-05 12:57 44.92151 -60.37591 39036 ft 534 kts 70°
2026-05-05 12:58 44.94452 -60.27617 39042 ft 535 kts 70°
2026-05-05 12:58 44.96745 -60.17627 39046 ft 535 kts 70°
2026-05-05 12:59 44.99016 -60.07689 39060 ft 535 kts 70°
2026-05-05 12:59 45.01297 -59.97666 39035 ft 536 kts 70°
2026-05-05 13:00 45.04704 -59.82595 39039 ft 537 kts 70°
2026-05-05 13:01 45.09209 -59.62508 39063 ft 538 kts 71°
2026-05-05 13:01 45.11462 -59.52393 39040 ft 539 kts 71°
2026-05-05 13:02 45.13706 -59.42268 39044 ft 540 kts 71°
2026-05-05 13:02 45.15945 -59.32118 39043 ft 540 kts 71°
2026-05-05 13:03 45.18161 -59.22023 39046 ft 540 kts 71°
2026-05-05 13:03 45.20385 -59.11849 39051 ft 540 kts 71°
2026-05-05 13:04 45.22598 -59.01669 39051 ft 540 kts 71°
2026-05-05 13:04 45.24801 -58.91484 39049 ft 540 kts 71°
2026-05-05 13:05 45.26993 -58.81306 39048 ft 540 kts 71°
2026-05-05 13:05 45.29164 -58.71171 39047 ft 539 kts 71°
2026-05-05 13:06 45.31335 -58.60988 39045 ft 539 kts 72°
2026-05-05 13:06 45.33499 -58.50790 39044 ft 539 kts 72°
2026-05-05 13:07 45.35653 -58.40584 39047 ft 539 kts 72°
2026-05-05 13:07 45.37782 -58.30449 39054 ft 539 kts 72°
2026-05-05 13:08 45.39921 -58.20219 39043 ft 540 kts 72°
2026-05-05 13:08 45.42051 -58.09976 39033 ft 540 kts 72°
2026-05-05 13:09 45.44174 -57.99715 39041 ft 541 kts 72°
2026-05-05 13:09 45.46276 -57.89502 39045 ft 541 kts 72°
2026-05-05 13:10 45.48389 -57.79191 39039 ft 543 kts 72°
2026-05-05 13:10 45.50494 -57.68858 39045 ft 543 kts 72°
2026-05-05 13:11 45.52593 -57.58502 39059 ft 544 kts 73°
2026-05-05 13:11 45.54668 -57.48212 39049 ft 544 kts 73°
2026-05-05 13:12 45.56751 -57.37829 39049 ft 545 kts 73°
2026-05-05 13:12 45.58826 -57.27429 39050 ft 545 kts 73°
2026-05-05 13:13 45.60893 -57.17019 39054 ft 545 kts 73°
2026-05-05 13:13 45.62936 -57.06669 39048 ft 545 kts 73°
2026-05-05 13:14 45.64985 -56.96239 39054 ft 545 kts 73°
2026-05-05 13:14 45.67021 -56.85814 39054 ft 545 kts 73°
2026-05-05 13:15 45.69048 -56.75383 39051 ft 544 kts 73°
2026-05-05 13:15 45.71050 -56.65022 39045 ft 544 kts 73°
2026-05-05 13:16 45.73055 -56.54590 39048 ft 544 kts 74°
2026-05-05 13:16 45.75050 -56.44154 39043 ft 543 kts 74°
2026-05-05 13:17 45.77034 -56.33716 39041 ft 543 kts 74°
2026-05-05 13:17 45.79006 -56.23287 39040 ft 543 kts 74°
2026-05-05 13:18 45.80957 -56.12908 39039 ft 543 kts 74°
2026-05-05 13:18 45.82913 -56.02451 39040 ft 543 kts 74°
2026-05-05 13:19 45.84530 -55.93759 39039 ft 543 kts 74°
2026-05-05 13:19 45.86469 -55.83281 39049 ft 543 kts 74°
2026-05-05 13:20 45.88711 -55.71089 39048 ft 544 kts 75°
2026-05-05 13:20 45.90632 -55.60587 39046 ft 544 kts 75°
2026-05-05 13:21 45.92219 -55.51860 39047 ft 544 kts 75°
2026-05-05 13:21 45.94428 -55.39640 39050 ft 544 kts 75°
2026-05-05 13:22 45.96320 -55.29114 39053 ft 544 kts 75°
2026-05-05 13:22 45.98201 -55.18581 39048 ft 544 kts 75°
2026-05-05 13:23 45.99759 -55.09820 39056 ft 544 kts 75°
2026-05-05 13:23 46.01623 -54.99276 39028 ft 544 kts 76°
2026-05-05 13:24 46.03778 -54.87004 39034 ft 545 kts 76°
2026-05-05 13:24 46.05327 -54.78132 39040 ft 546 kts 76°
2026-05-05 13:25 46.07154 -54.67609 39055 ft 546 kts 76°
2026-05-05 13:25 46.09285 -54.55256 39061 ft 546 kts 76°
2026-05-05 13:26 46.10810 -54.46362 39059 ft 546 kts 76°
2026-05-05 13:26 46.12611 -54.35804 39045 ft 546 kts 76°
2026-05-05 13:27 46.14413 -54.25172 39040 ft 547 kts 76°
2026-05-05 13:27 46.16209 -54.14511 39041 ft 547 kts 77°
2026-05-05 13:28 46.17996 -54.03833 39049 ft 548 kts 77°
2026-05-05 13:28 46.19763 -53.93211 39046 ft 548 kts 77°
2026-05-05 13:29 46.21533 -53.82505 39053 ft 548 kts 77°
2026-05-05 13:29 46.23292 -53.71803 39040 ft 548 kts 77°
2026-05-05 13:30 46.25043 -53.61078 39037 ft 549 kts 77°
2026-05-05 13:30 46.26774 -53.50407 39038 ft 549 kts 77°
2026-05-05 13:31 46.28508 -53.39647 39040 ft 550 kts 77°
2026-05-05 13:31 46.30234 -53.28874 39051 ft 550 kts 77°
2026-05-05 13:32 46.31948 -53.18101 39050 ft 550 kts 77°
2026-05-05 13:32 46.33653 -53.07313 39028 ft 550 kts 78°
2026-05-05 13:33 46.35339 -52.96582 39026 ft 551 kts 78°
2026-05-05 13:33 46.37027 -52.85755 39045 ft 552 kts 78°
2026-05-05 13:34 46.38707 -52.74915 39049 ft 552 kts 78°
2026-05-05 13:34 46.40385 -52.64049 39045 ft 553 kts 78°
2026-05-05 13:35 46.42046 -52.53244 39057 ft 553 kts 78°
2026-05-05 13:35 46.43710 -52.42358 39058 ft 553 kts 78°
2026-05-05 13:36 46.45363 -52.31466 39051 ft 553 kts 78°
2026-05-05 13:36 46.46995 -52.20644 39059 ft 553 kts 78°
2026-05-05 13:37 46.48627 -52.09745 39056 ft 553 kts 78°
2026-05-05 13:37 46.50246 -51.98857 39062 ft 552 kts 78°
2026-05-05 13:38 46.52738 -51.88328 39057 ft 552 kts 67°
2026-05-05 13:38 46.55652 -51.78015 39056 ft 552 kts 68°
2026-05-05 13:39 46.58393 -51.67673 39035 ft 552 kts 69°
2026-05-05 13:39 46.61083 -51.57217 39041 ft 552 kts 70°
2026-05-05 13:40 46.63758 -51.46745 39046 ft 553 kts 70°
2026-05-05 13:40 46.66431 -51.36240 39052 ft 554 kts 70°
2026-05-05 13:41 46.69081 -51.25782 39066 ft 554 kts 70°
2026-05-05 13:41 46.71741 -51.15234 39072 ft 555 kts 70°
2026-05-05 13:42 46.74394 -51.04671 39069 ft 555 kts 70°
2026-05-05 13:42 46.77036 -50.94099 39073 ft 555 kts 70°
2026-05-05 13:43 46.79649 -50.83591 39070 ft 554 kts 70°
2026-05-05 13:43 46.82268 -50.73017 39059 ft 555 kts 71°
2026-05-05 13:44 46.84880 -50.62415 39063 ft 555 kts 71°
2026-05-05 13:44 46.87483 -50.51799 39065 ft 555 kts 71°
2026-05-05 13:45 46.90058 -50.41252 39067 ft 555 kts 71°
2026-05-05 13:45 46.92643 -50.30609 39070 ft 555 kts 71°
2026-05-05 13:46 46.95219 -50.19957 39075 ft 555 kts 71°
2026-05-05 13:46 46.97783 -50.09299 39070 ft 555 kts 71°
2026-05-05 13:47 47.00322 -49.98710 39070 ft 554 kts 71°
2026-05-05 13:47 47.02951 -49.88096 39045 ft 554 kts 70°
2026-05-05 13:48 47.05625 -49.77491 39051 ft 555 kts 70°
2026-05-05 13:48 47.08292 -49.66863 39062 ft 556 kts 70°
2026-05-05 13:49 47.10951 -49.56202 39072 ft 557 kts 71°
2026-05-05 13:49 47.13585 -49.45589 39084 ft 557 kts 71°
2026-05-05 13:50 47.16218 -49.34901 39082 ft 557 kts 71°
2026-05-05 13:50 47.18840 -49.24193 39078 ft 557 kts 71°
2026-05-05 13:51 47.21449 -49.13481 39084 ft 556 kts 71°
2026-05-05 13:51 47.24028 -49.02848 39087 ft 555 kts 71°
2026-05-05 13:52 47.26608 -48.92153 39083 ft 554 kts 71°
2026-05-05 13:52 47.29175 -48.81464 39073 ft 553 kts 71°
2026-05-05 13:53 47.31724 -48.70795 39077 ft 552 kts 72°
2026-05-05 13:53 47.34247 -48.60189 39079 ft 551 kts 72°
2026-05-05 13:54 47.36771 -48.49520 39074 ft 551 kts 72°
2026-05-05 13:54 47.39284 -48.38850 39077 ft 550 kts 72°
2026-05-05 13:55 47.41783 -48.28186 39084 ft 550 kts 72°
2026-05-05 13:55 47.44258 -48.17575 39084 ft 550 kts 72°
2026-05-05 13:56 47.46738 -48.06889 39077 ft 550 kts 72°
2026-05-05 13:56 47.49208 -47.96192 39071 ft 550 kts 72°
2026-05-05 13:57 47.51672 -47.85468 39082 ft 551 kts 73°
2026-05-05 13:57 47.54130 -47.74717 39088 ft 552 kts 73°
2026-05-05 13:58 47.56562 -47.64025 39095 ft 553 kts 73°
2026-05-05 13:58 47.59005 -47.53229 39112 ft 553 kts 73°
2026-05-05 13:59 47.62653 -47.37012 39107 ft 553 kts 73°
2026-05-05 14:00 47.66260 -47.20850 39118 ft 552 kts 73°
2026-05-05 14:00 47.68658 -47.10036 39118 ft 552 kts 73°
2026-05-05 14:01 47.71046 -46.99207 39083 ft 552 kts 73°
2026-05-05 14:01 47.73413 -46.88422 39097 ft 553 kts 73°
2026-05-05 14:02 47.75786 -46.77551 39109 ft 554 kts 73°
2026-05-05 14:02 47.78159 -46.66626 39125 ft 555 kts 73°
2026-05-05 14:03 47.80519 -46.55705 39134 ft 555 kts 74°
2026-05-05 14:03 47.82871 -46.44760 39144 ft 555 kts 74°
2026-05-05 14:04 47.85196 -46.33883 39142 ft 555 kts 74°
2026-05-05 14:04 47.87524 -46.22931 39132 ft 554 kts 74°
2026-05-05 14:05 47.89837 -46.11996 39136 ft 554 kts 74°
2026-05-05 14:05 47.92138 -46.01052 39113 ft 553 kts 74°
2026-05-05 14:06 47.94430 -45.90096 39113 ft 554 kts 74°
2026-05-05 14:06 47.96700 -45.79190 39116 ft 554 kts 75°
2026-05-05 14:07 47.98977 -45.68187 39132 ft 555 kts 75°
2026-05-05 14:07 48.01242 -45.57180 39146 ft 555 kts 75°
2026-05-05 14:08 48.03499 -45.46148 39147 ft 556 kts 75°
2026-05-05 14:08 48.05734 -45.35169 39154 ft 556 kts 75°
2026-05-05 14:09 48.07972 -45.24110 39163 ft 556 kts 75°
2026-05-05 14:09 48.10199 -45.13047 39160 ft 555 kts 75°
2026-05-05 14:10 48.12411 -45.01995 39138 ft 555 kts 75°
2026-05-05 14:10 48.14613 -44.90927 39142 ft 555 kts 75°
2026-05-05 14:11 48.16791 -44.79920 39158 ft 555 kts 75°
2026-05-05 14:11 48.18975 -44.68820 39160 ft 555 kts 76°
2026-05-05 14:12 48.21149 -44.57702 39165 ft 556 kts 76°
2026-05-05 14:12 48.23314 -44.46571 39177 ft 556 kts 76°
2026-05-05 14:13 48.25451 -44.35519 39184 ft 556 kts 76°
2026-05-05 14:13 48.27593 -44.24376 39181 ft 555 kts 76°
2026-05-05 14:14 48.29723 -44.13232 39185 ft 555 kts 76°
2026-05-05 14:14 48.31840 -44.02089 39177 ft 554 kts 76°
2026-05-05 14:15 48.33929 -43.91026 39178 ft 555 kts 76°
2026-05-05 14:15 48.36026 -43.79860 39182 ft 555 kts 76°
2026-05-05 14:16 48.38113 -43.68676 39187 ft 555 kts 76°
2026-05-05 14:16 48.40189 -43.57485 39201 ft 555 kts 76°
2026-05-05 14:17 48.42239 -43.46363 39206 ft 555 kts 77°
2026-05-05 14:17 48.44290 -43.35173 39204 ft 555 kts 77°
2026-05-05 14:18 48.46331 -43.23969 39204 ft 554 kts 77°
2026-05-05 14:18 48.48360 -43.12762 39205 ft 554 kts 77°
2026-05-05 14:19 48.50363 -43.01626 39178 ft 554 kts 77°
2026-05-05 14:19 48.52368 -42.90414 39195 ft 554 kts 77°
2026-05-05 14:20 48.54362 -42.79185 39206 ft 554 kts 77°
2026-05-05 14:20 48.56344 -42.67963 39217 ft 554 kts 77°
2026-05-05 14:21 48.58303 -42.56799 39218 ft 554 kts 77°
2026-05-05 14:21 48.60265 -42.45551 39218 ft 554 kts 77°
2026-05-05 14:22 48.62214 -42.34307 39221 ft 553 kts 77°
2026-05-05 14:22 48.64152 -42.23053 39226 ft 553 kts 78°
2026-05-05 14:23 48.66064 -42.11879 39222 ft 552 kts 78°
2026-05-05 14:23 48.67975 -42.00630 39219 ft 552 kts 78°
2026-05-05 14:24 48.69874 -41.89390 39219 ft 551 kts 78°
2026-05-05 14:24 48.71761 -41.78141 39221 ft 551 kts 78°
2026-05-05 14:25 48.73623 -41.66969 39225 ft 551 kts 78°
2026-05-05 14:25 48.75488 -41.55700 39228 ft 551 kts 78°
2026-05-05 14:26 48.77343 -41.44424 39225 ft 551 kts 78°
2026-05-05 14:26 48.79186 -41.33145 39231 ft 551 kts 78°
2026-05-05 14:27 48.81004 -41.21938 39228 ft 551 kts 78°
2026-05-05 14:27 48.82823 -41.10654 39232 ft 550 kts 79°
2026-05-05 14:28 48.84628 -40.99380 39228 ft 550 kts 79°
2026-05-05 14:28 48.86423 -40.88095 39218 ft 550 kts 79°
2026-05-05 14:29 48.88195 -40.76878 39222 ft 550 kts 79°
2026-05-05 14:29 48.89970 -40.65555 39246 ft 551 kts 79°
2026-05-05 14:30 48.91737 -40.54213 39246 ft 552 kts 79°
2026-05-05 14:30 48.93495 -40.42854 39233 ft 552 kts 79°
2026-05-05 14:31 48.95237 -40.31561 39236 ft 552 kts 79°
2026-05-05 14:31 48.96983 -40.20188 39238 ft 552 kts 79°
2026-05-05 14:32 48.98717 -40.08813 39236 ft 551 kts 79°
2026-05-05 14:32 49.00449 -39.97449 39243 ft 551 kts 77°
2026-05-05 14:33 49.03128 -39.86489 39223 ft 553 kts 68°
2026-05-05 14:33 49.06026 -39.75738 39225 ft 552 kts 70°
2026-05-05 14:34 49.08816 -39.64809 39214 ft 553 kts 70°
2026-05-05 14:34 49.11556 -39.53827 39224 ft 554 kts 70°
2026-05-05 14:35 49.14284 -39.42818 39229 ft 555 kts 70°
2026-05-05 14:35 49.16979 -39.31869 39232 ft 555 kts 70°
2026-05-05 14:36 49.19682 -39.20819 39238 ft 555 kts 70°
2026-05-05 14:36 49.22372 -39.09768 39236 ft 554 kts 71°
2026-05-05 14:37 49.25050 -38.98713 39232 ft 554 kts 71°
2026-05-05 14:37 49.27697 -38.87730 39229 ft 553 kts 71°
2026-05-05 14:38 49.30347 -38.76678 39222 ft 553 kts 71°
2026-05-05 14:38 49.32985 -38.65618 39221 ft 552 kts 71°
2026-05-05 14:39 49.35612 -38.54551 39215 ft 552 kts 71°
2026-05-05 14:39 49.38209 -38.43552 39210 ft 552 kts 71°
2026-05-05 14:40 49.40812 -38.32472 39221 ft 552 kts 71°
2026-05-05 14:40 49.43402 -38.21394 39219 ft 552 kts 71°
2026-05-05 14:41 49.45984 -38.10293 39217 ft 552 kts 71°
2026-05-05 14:41 49.48537 -37.99255 39226 ft 551 kts 71°
2026-05-05 14:42 49.51094 -37.88144 39224 ft 551 kts 71°
2026-05-05 14:42 49.53638 -37.77033 39221 ft 550 kts 71°
2026-05-05 14:43 49.56169 -37.65922 39221 ft 550 kts 71°
2026-05-05 14:43 49.58688 -37.54802 39227 ft 549 kts 71°
2026-05-05 14:44 49.61179 -37.43751 39218 ft 549 kts 71°
2026-05-05 14:44 49.63669 -37.32645 39213 ft 548 kts 72°
2026-05-05 14:45 49.66150 -37.21522 39211 ft 548 kts 72°
2026-05-05 14:45 49.68600 -37.10475 39220 ft 547 kts 72°
2026-05-05 14:46 49.71052 -36.99362 39217 ft 546 kts 72°
2026-05-05 14:46 49.73493 -36.88244 39213 ft 546 kts 72°
2026-05-05 14:47 49.75920 -36.77124 39199 ft 546 kts 72°
2026-05-05 14:47 49.78333 -36.66011 39216 ft 544 kts 72°
2026-05-05 14:48 49.80714 -36.54988 39210 ft 544 kts 72°
2026-05-05 14:48 49.83100 -36.43876 39207 ft 543 kts 72°
2026-05-05 14:49 49.85475 -36.32761 39201 ft 543 kts 72°
2026-05-05 14:49 49.87834 -36.21656 39216 ft 542 kts 72°
2026-05-05 14:50 49.90164 -36.10626 39194 ft 542 kts 72°
2026-05-05 14:50 49.92498 -35.99526 39207 ft 542 kts 72°
2026-05-05 14:51 49.94824 -35.88393 39211 ft 542 kts 72°
2026-05-05 14:51 49.97136 -35.77269 39210 ft 542 kts 72°
2026-05-05 14:52 49.99423 -35.66204 39205 ft 541 kts 72°
2026-05-05 14:52 50.01714 -35.55059 39203 ft 541 kts 72°
2026-05-05 14:53 50.03990 -35.43921 39207 ft 540 kts 72°
2026-05-05 14:53 50.06252 -35.32795 39196 ft 539 kts 72°
2026-05-05 14:54 50.08483 -35.21756 39192 ft 538 kts 72°
2026-05-05 14:54 50.10718 -35.10632 39188 ft 538 kts 72°
2026-05-05 14:55 50.12940 -34.99511 39185 ft 538 kts 73°
2026-05-05 14:55 50.15151 -34.88380 39181 ft 537 kts 73°
2026-05-05 14:56 50.17337 -34.77317 39181 ft 537 kts 73°
2026-05-05 14:56 50.19526 -34.66171 39178 ft 537 kts 73°
2026-05-05 14:57 50.21705 -34.55013 39173 ft 537 kts 73°
2026-05-05 14:57 50.23873 -34.43842 39183 ft 537 kts 73°
2026-05-05 14:58 50.26015 -34.32746 39185 ft 537 kts 73°
2026-05-05 14:58 50.28161 -34.21557 39174 ft 538 kts 73°
2026-05-05 14:59 50.30298 -34.10352 39197 ft 537 kts 73°
2026-05-05 14:59 50.32424 -33.99144 39200 ft 537 kts 73°
2026-05-05 15:00 50.34183 -33.89815 39203 ft 537 kts 73°
2026-05-05 15:00 50.36628 -33.76770 39204 ft 537 kts 73°
2026-05-05 15:01 50.38718 -33.65548 39225 ft 536 kts 73°
2026-05-05 15:01 50.40792 -33.54343 39221 ft 535 kts 73°
2026-05-05 15:02 50.42850 -33.43156 39218 ft 533 kts 73°
2026-05-05 15:02 50.44881 -33.32053 39209 ft 532 kts 73°
2026-05-05 15:03 50.46907 -33.20905 39225 ft 531 kts 73°
2026-05-05 15:03 50.48919 -33.09766 39230 ft 530 kts 74°
2026-05-05 15:04 50.50917 -32.98638 39221 ft 529 kts 74°
2026-05-05 15:04 50.52888 -32.87593 39217 ft 528 kts 74°
2026-05-05 15:05 50.55841 -32.70915 39226 ft 528 kts 74°
2026-05-05 15:06 50.57794 -32.59799 39221 ft 528 kts 74°
2026-05-05 15:06 50.59738 -32.48664 39228 ft 528 kts 74°
2026-05-05 15:07 50.61659 -32.37592 39235 ft 528 kts 74°
2026-05-05 15:07 50.63583 -32.26431 39234 ft 528 kts 74°
2026-05-05 15:08 50.65499 -32.15248 39240 ft 529 kts 74°
2026-05-05 15:08 50.67404 -32.04057 39249 ft 529 kts 74°
2026-05-05 15:09 50.69304 -31.92825 39264 ft 530 kts 74°
2026-05-05 15:09 50.71176 -31.81680 39265 ft 529 kts 74°
2026-05-05 15:10 50.73052 -31.70448 39262 ft 529 kts 74°
2026-05-05 15:10 50.74915 -31.59215 39264 ft 529 kts 74°
2026-05-05 15:11 50.76765 -31.47982 39277 ft 528 kts 74°
2026-05-05 15:11 50.78586 -31.36851 39290 ft 526 kts 74°
2026-05-05 15:12 50.80405 -31.25668 39285 ft 525 kts 74°
2026-05-05 15:12 50.82206 -31.14514 39278 ft 523 kts 74°
2026-05-05 15:13 50.83996 -31.03361 39279 ft 523 kts 74°
2026-05-05 15:13 50.85757 -30.92308 39297 ft 520 kts 74°
2026-05-05 15:14 50.87514 -30.81205 39284 ft 519 kts 74°
2026-05-05 15:14 50.89256 -30.70131 39283 ft 518 kts 74°
2026-05-05 15:15 50.90985 -30.59058 39281 ft 517 kts 75°
2026-05-05 15:15 50.92688 -30.48078 39308 ft 515 kts 74°
2026-05-05 15:16 50.94389 -30.37061 39291 ft 514 kts 74°
2026-05-05 15:16 50.96081 -30.26070 39278 ft 513 kts 74°
2026-05-05 15:17 50.97763 -30.15077 39275 ft 512 kts 74°
2026-05-05 15:17 50.99432 -30.04088 39268 ft 512 kts 74°
2026-05-05 15:18 51.01336 -29.93316 39269 ft 508 kts 66°
2026-05-05 15:18 51.04113 -29.83007 39265 ft 508 kts 64°
2026-05-05 15:19 51.06843 -29.72637 39274 ft 509 kts 65°
2026-05-05 15:19 51.09477 -29.62191 39321 ft 509 kts 65°
2026-05-05 15:20 51.12068 -29.51783 39319 ft 508 kts 65°
2026-05-05 15:20 51.14657 -29.41325 39316 ft 508 kts 66°
2026-05-05 15:21 51.17232 -29.30859 39311 ft 507 kts 66°
2026-05-05 15:21 51.19789 -29.20399 39324 ft 506 kts 65°
2026-05-05 15:22 51.22314 -29.10030 39315 ft 504 kts 65°
2026-05-05 15:22 51.24839 -28.99608 39313 ft 503 kts 65°
2026-05-05 15:23 51.27349 -28.89204 39303 ft 502 kts 65°
2026-05-05 15:23 51.29845 -28.78801 39316 ft 501 kts 65°
2026-05-05 15:24 51.32311 -28.68477 39309 ft 500 kts 65°
2026-05-05 15:24 51.34780 -28.58092 39294 ft 499 kts 65°
2026-05-05 15:25 51.37236 -28.47714 39289 ft 498 kts 65°
2026-05-05 15:25 51.39676 -28.37348 39296 ft 498 kts 65°
2026-05-05 15:26 51.42108 -28.26965 39290 ft 497 kts 65°
2026-05-05 15:26 51.44513 -28.16656 39283 ft 497 kts 65°
2026-05-05 15:27 51.46921 -28.06279 39280 ft 496 kts 65°
2026-05-05 15:27 51.49320 -27.95892 39294 ft 497 kts 65°
2026-05-05 15:28 51.51712 -27.85485 39274 ft 498 kts 65°
2026-05-05 15:28 51.54085 -27.75110 39282 ft 499 kts 65°
2026-05-05 15:29 51.56470 -27.64632 39288 ft 500 kts 65°
2026-05-05 15:29 51.58851 -27.54116 39330 ft 501 kts 66°
2026-05-05 15:30 51.61209 -27.43648 39311 ft 502 kts 66°
2026-05-05 15:30 51.63577 -27.33085 39310 ft 502 kts 66°
2026-05-05 15:31 51.65935 -27.22512 39306 ft 502 kts 66°
2026-05-05 15:31 51.68284 -27.11930 39305 ft 501 kts 66°
2026-05-05 15:32 51.70606 -27.01411 39312 ft 501 kts 66°
2026-05-05 15:32 51.72928 -26.90839 39311 ft 500 kts 66°
2026-05-05 15:33 51.75242 -26.80251 39302 ft 500 kts 66°
2026-05-05 15:33 51.77540 -26.69684 39299 ft 499 kts 66°
2026-05-05 15:34 51.79831 -26.59096 39309 ft 499 kts 66°
2026-05-05 15:34 51.82095 -26.48576 39303 ft 499 kts 66°
2026-05-05 15:35 51.84362 -26.37985 39302 ft 498 kts 66°
2026-05-05 15:35 51.86619 -26.27387 39302 ft 498 kts 66°
2026-05-05 15:36 51.88865 -26.16789 39307 ft 498 kts 67°
2026-05-05 15:36 51.91103 -26.06170 39309 ft 498 kts 67°
2026-05-05 15:37 51.93315 -25.95616 39306 ft 498 kts 67°
2026-05-05 15:37 51.95533 -25.84981 39303 ft 498 kts 67°
2026-05-05 15:38 51.97742 -25.74332 39306 ft 498 kts 67°
2026-05-05 15:38 51.99928 -25.63739 39309 ft 498 kts 67°
2026-05-05 15:39 52.02118 -25.53071 39308 ft 499 kts 67°
2026-05-05 15:39 52.04301 -25.42376 39309 ft 499 kts 68°
2026-05-05 15:40 52.06475 -25.31665 39332 ft 499 kts 68°
2026-05-05 15:40 52.08643 -25.20934 39312 ft 500 kts 68°
2026-05-05 15:41 52.10782 -25.10280 39312 ft 499 kts 68°
2026-05-05 15:41 52.12928 -24.99536 39309 ft 499 kts 68°
2026-05-05 15:42 52.15063 -24.88786 39306 ft 499 kts 68°
2026-05-05 15:42 52.17189 -24.78025 39301 ft 499 kts 68°
2026-05-05 15:43 52.19291 -24.67325 39304 ft 499 kts 68°
2026-05-05 15:43 52.21397 -24.56542 39306 ft 499 kts 68°
2026-05-05 15:44 52.23492 -24.45757 39304 ft 499 kts 69°
2026-05-05 15:44 52.25581 -24.34944 39303 ft 500 kts 69°
2026-05-05 15:45 52.27648 -24.24180 39301 ft 500 kts 69°
2026-05-05 15:45 52.29719 -24.13332 39302 ft 500 kts 69°
2026-05-05 15:46 52.31782 -24.02471 39296 ft 500 kts 69°
2026-05-05 15:46 52.33834 -23.91598 39308 ft 501 kts 69°
2026-05-05 15:47 52.35864 -23.80785 39296 ft 501 kts 69°
2026-05-05 15:47 52.37899 -23.69877 39295 ft 501 kts 69°
2026-05-05 15:48 52.39925 -23.58959 39292 ft 501 kts 70°
2026-05-05 15:48 52.41939 -23.48035 39315 ft 501 kts 70°
2026-05-05 15:49 52.43933 -23.37160 39297 ft 502 kts 70°
2026-05-05 15:49 52.45930 -23.26201 39292 ft 502 kts 70°
2026-05-05 15:50 52.47917 -23.15232 39290 ft 502 kts 70°
2026-05-05 15:50 52.49892 -23.04266 39288 ft 502 kts 70°
2026-05-05 15:51 52.51847 -22.93347 39281 ft 502 kts 70°
2026-05-05 15:51 52.53804 -22.82343 39288 ft 502 kts 70°
2026-05-05 15:52 52.55751 -22.71331 39286 ft 502 kts 70°
2026-05-05 15:52 52.57688 -22.60309 39287 ft 502 kts 71°
2026-05-05 15:53 52.59601 -22.49360 39275 ft 502 kts 71°
2026-05-05 15:53 52.61519 -22.38310 39277 ft 502 kts 71°
2026-05-05 15:54 52.63427 -22.27247 39274 ft 502 kts 71°
2026-05-05 15:54 52.65326 -22.16170 39272 ft 503 kts 71°
2026-05-05 15:55 52.67203 -22.05150 39289 ft 503 kts 71°
2026-05-05 15:55 52.69081 -21.94051 39276 ft 503 kts 71°
2026-05-05 15:56 52.70952 -21.82928 39276 ft 503 kts 71°
2026-05-05 15:56 52.72812 -21.71796 39272 ft 503 kts 71°
2026-05-05 15:57 52.74649 -21.60730 39270 ft 503 kts 72°
2026-05-05 15:57 52.76487 -21.49590 39271 ft 503 kts 72°
2026-05-05 15:58 52.78316 -21.38425 39268 ft 503 kts 72°
2026-05-05 15:58 52.80135 -21.27257 39263 ft 503 kts 72°
2026-05-05 15:59 52.81930 -21.16156 39263 ft 503 kts 72°
2026-05-05 15:59 52.83724 -21.04986 39263 ft 503 kts 72°
2026-05-05 16:00 52.85510 -20.93796 39263 ft 503 kts 72°
2026-05-05 16:00 52.87285 -20.82598 39263 ft 503 kts 72°
2026-05-05 16:01 52.89038 -20.71466 39264 ft 503 kts 72°
2026-05-05 16:01 52.90793 -20.60243 39256 ft 504 kts 73°
2026-05-05 16:02 52.92539 -20.49004 39258 ft 504 kts 73°
2026-05-05 16:02 52.94277 -20.37760 39257 ft 504 kts 73°
2026-05-05 16:03 52.96000 -20.26580 39259 ft 504 kts 73°
2026-05-05 16:03 52.97725 -20.15313 39268 ft 504 kts 73°
2026-05-05 16:04 52.99168 -20.03910 39252 ft 506 kts 78°
2026-05-05 16:04 53.00055 -19.92300 39252 ft 508 kts 83°
2026-05-05 16:05 53.00337 -19.80645 39246 ft 509 kts 86°
2026-05-05 16:05 53.00595 -19.68915 39246 ft 509 kts 85°
2026-05-05 16:06 53.00827 -19.57167 39247 ft 509 kts 86°
2026-05-05 16:06 53.01029 -19.45409 39248 ft 509 kts 86°
2026-05-05 16:07 53.01214 -19.33731 39244 ft 510 kts 86°
2026-05-05 16:07 53.01389 -19.21967 39241 ft 509 kts 86°
2026-05-05 16:08 53.01553 -19.10203 39251 ft 509 kts 86°
2026-05-05 16:08 53.01705 -18.98446 39237 ft 510 kts 87°
2026-05-05 16:09 53.01845 -18.86755 39236 ft 510 kts 87°
2026-05-05 16:09 53.01974 -18.74986 39233 ft 510 kts 87°
2026-05-05 16:10 53.02092 -18.63217 39229 ft 509 kts 87°
2026-05-05 16:10 53.02198 -18.51444 39229 ft 510 kts 87°
2026-05-05 16:11 53.02292 -18.39743 39230 ft 510 kts 87°
2026-05-05 16:12 53.02445 -18.16195 39219 ft 510 kts 88°
2026-05-05 16:13 53.02572 -17.86820 39223 ft 510 kts 88°
2026-05-05 16:13 53.02603 -17.75057 39221 ft 510 kts 88°
2026-05-05 16:14 53.02629 -17.51519 39224 ft 509 kts 88°
2026-05-05 16:15 53.02609 -17.28061 39210 ft 509 kts 89°
2026-05-05 16:16 53.02542 -17.04538 39210 ft 509 kts 89°
2026-05-05 16:17 53.02463 -16.86988 39215 ft 509 kts 89°
2026-05-05 16:18 53.02356 -16.69359 39212 ft 509 kts 89°
2026-05-05 16:19 53.02224 -16.51745 39204 ft 508 kts 89°
2026-05-05 16:19 53.02066 -16.34145 39206 ft 508 kts 90°
2026-05-05 16:20 53.01816 -16.10789 39202 ft 507 kts 90°
2026-05-05 16:22 53.01439 -15.81584 39193 ft 507 kts 90°
2026-05-05 16:23 53.01086 -15.58171 39193 ft 507 kts 90°
2026-05-05 16:23 53.00793 -15.40684 39201 ft 507 kts 90°
2026-05-05 16:24 53.00582 -15.28969 39195 ft 508 kts 90°
2026-05-05 16:25 53.00248 -15.11398 39200 ft 508 kts 91°
2026-05-05 16:25 52.99959 -14.93911 39195 ft 507 kts 89°
2026-05-05 16:26 53.00097 -14.70529 39191 ft 507 kts 89°
2026-05-05 16:27 53.00118 -14.58833 39191 ft 506 kts 89°
2026-05-05 16:27 53.00121 -14.47219 39187 ft 506 kts 89°
2026-05-05 16:28 53.00113 -14.35543 39184 ft 506 kts 89°
2026-05-05 16:28 53.00094 -14.23855 39186 ft 506 kts 89°
2026-05-05 16:29 53.00064 -14.12170 39185 ft 506 kts 89°
2026-05-05 16:29 52.99953 -14.00572 39187 ft 506 kts 93°
2026-05-05 16:30 52.99084 -13.88989 39166 ft 507 kts 97°
2026-05-05 16:30 52.98092 -13.77413 39171 ft 507 kts 97°
2026-05-05 16:31 52.97113 -13.65833 39181 ft 507 kts 97°
2026-05-05 16:31 52.96132 -13.54333 39168 ft 507 kts 97°
2026-05-05 16:32 52.95125 -13.42757 39166 ft 507 kts 97°
2026-05-05 16:32 52.94101 -13.31182 39179 ft 507 kts 98°
2026-05-05 16:33 52.93065 -13.19619 39171 ft 508 kts 98°
2026-05-05 16:33 52.92015 -13.08029 39170 ft 508 kts 98°
2026-05-05 16:34 52.90963 -12.96538 39171 ft 508 kts 98°
2026-05-05 16:34 52.89893 -12.84985 39173 ft 508 kts 98°
2026-05-05 16:35 52.88811 -12.73428 39171 ft 508 kts 98°
2026-05-05 16:35 52.87718 -12.61881 39166 ft 508 kts 98°
2026-05-05 16:36 52.86622 -12.50420 39169 ft 507 kts 98°
2026-05-05 16:36 52.85512 -12.38931 39155 ft 507 kts 98°
2026-05-05 16:37 52.84384 -12.27385 39155 ft 507 kts 98°
2026-05-05 16:37 52.83442 -12.17831 39162 ft 507 kts 99°
2026-05-05 16:38 52.82298 -12.06334 39155 ft 507 kts 99°
2026-05-05 16:38 52.80954 -11.92989 39149 ft 506 kts 99°
2026-05-05 16:39 52.79986 -11.83460 39154 ft 506 kts 99°
2026-05-05 16:39 52.78809 -11.71993 39139 ft 506 kts 99°
2026-05-05 16:40 52.77622 -11.60533 39143 ft 506 kts 99°
2026-05-05 16:40 52.76424 -11.49081 39143 ft 506 kts 99°
2026-05-05 16:41 52.75223 -11.37716 39141 ft 506 kts 99°
2026-05-05 16:41 52.74003 -11.26277 39137 ft 506 kts 99°
2026-05-05 16:42 52.72772 -11.14845 39134 ft 506 kts 100°
2026-05-05 16:42 52.71532 -11.03437 39132 ft 506 kts 100°
2026-05-05 16:43 52.70280 -10.92025 39134 ft 506 kts 100°
2026-05-05 16:43 52.69025 -10.80699 39129 ft 506 kts 100°
2026-05-05 16:44 52.67751 -10.69302 39126 ft 506 kts 100°
2026-05-05 16:44 52.66467 -10.57911 39121 ft 505 kts 100°
2026-05-05 16:45 52.65171 -10.46529 39117 ft 505 kts 101°
2026-05-05 16:45 52.63874 -10.35230 39117 ft 506 kts 101°
2026-05-05 16:46 52.62558 -10.23874 39113 ft 506 kts 101°
2026-05-05 16:46 52.61229 -10.12504 39114 ft 506 kts 101°
2026-05-05 16:47 52.59891 -10.01161 39107 ft 506 kts 101°
2026-05-05 16:47 52.58550 -9.89882 39109 ft 505 kts 101°
2026-05-05 16:48 52.57189 -9.78545 39105 ft 505 kts 101°
2026-05-05 16:48 52.55819 -9.67221 39105 ft 505 kts 101°
2026-05-05 16:49 52.54448 -9.55987 39104 ft 505 kts 101°
2026-05-05 16:49 52.53057 -9.44683 39106 ft 505 kts 101°
2026-05-05 16:50 52.51657 -9.33398 39103 ft 505 kts 102°
2026-05-05 16:50 52.50245 -9.22113 39103 ft 504 kts 102°
2026-05-05 16:51 52.48824 -9.10845 39097 ft 504 kts 102°
2026-05-05 16:51 52.47400 -8.99653 39097 ft 504 kts 102°
2026-05-05 16:52 52.45957 -8.88396 39098 ft 504 kts 102°
2026-05-05 16:52 52.44504 -8.77151 39094 ft 504 kts 102°
2026-05-05 16:53 52.43042 -8.65928 39090 ft 503 kts 102°
2026-05-05 16:53 52.41579 -8.54784 39080 ft 503 kts 102°
2026-05-05 16:54 52.40096 -8.43583 39077 ft 503 kts 102°
2026-05-05 16:54 52.38607 -8.32414 39079 ft 502 kts 102°
2026-05-05 16:55 52.37106 -8.21250 39075 ft 502 kts 102°
2026-05-05 16:55 52.35607 -8.10176 39067 ft 502 kts 103°
2026-05-05 16:56 52.34087 -7.99041 39066 ft 501 kts 103°
2026-05-05 16:56 52.32558 -7.87918 39065 ft 501 kts 103°
2026-05-05 16:57 52.31019 -7.76810 39062 ft 501 kts 103°
2026-05-05 16:57 52.29481 -7.65790 39059 ft 501 kts 103°
2026-05-05 16:58 52.27922 -7.54698 39052 ft 501 kts 103°
2026-05-05 16:58 52.26353 -7.43619 39065 ft 501 kts 103°
2026-05-05 16:59 52.24775 -7.32559 39079 ft 500 kts 103°
2026-05-05 16:59 52.23201 -7.21607 39083 ft 499 kts 103°
2026-05-05 17:00 52.21607 -7.10590 39073 ft 499 kts 103°
2026-05-05 17:00 52.20003 -6.99585 39071 ft 499 kts 103°
2026-05-05 17:01 52.18389 -6.88593 39075 ft 499 kts 103°
2026-05-05 17:01 52.16767 -6.77622 39066 ft 498 kts 104°
2026-05-05 17:02 52.15146 -6.66727 39061 ft 498 kts 104°
2026-05-05 17:02 52.13503 -6.55768 39054 ft 498 kts 104°
2026-05-05 17:03 52.11852 -6.44832 39054 ft 498 kts 104°
2026-05-05 17:03 52.10191 -6.33895 39064 ft 497 kts 104°
2026-05-05 17:04 52.08541 -6.23060 39064 ft 496 kts 104°
2026-05-05 17:04 52.06864 -6.12178 39055 ft 496 kts 105°
2026-05-05 17:05 52.04736 -6.01533 39047 ft 495 kts 111°
2026-05-05 17:05 52.01990 -5.91290 39045 ft 494 kts 115°
2026-05-05 17:06 51.99146 -5.81216 39027 ft 496 kts 115°
2026-05-05 17:06 51.96277 -5.71037 39041 ft 496 kts 115°
2026-05-05 17:07 51.93390 -5.60878 39032 ft 497 kts 115°
2026-05-05 17:07 51.90488 -5.50726 39047 ft 497 kts 115°
2026-05-05 17:08 51.87594 -5.40645 39037 ft 497 kts 115°
2026-05-05 17:08 51.84670 -5.30501 39042 ft 497 kts 115°
2026-05-05 17:09 51.81739 -5.20375 39036 ft 497 kts 115°
2026-05-05 17:09 51.78801 -5.10270 39033 ft 497 kts 115°
2026-05-05 17:10 51.75950 -5.00178 39036 ft 497 kts 113°
2026-05-05 17:10 51.73295 -4.89871 39033 ft 497 kts 113°
2026-05-05 17:11 51.70614 -4.79601 39013 ft 497 kts 113°
2026-05-05 17:11 51.67917 -4.69425 39020 ft 497 kts 113°
2026-05-05 17:12 51.65192 -4.59210 39004 ft 496 kts 114°
2026-05-05 17:12 51.62460 -4.49014 39013 ft 496 kts 114°
2026-05-05 17:13 51.59717 -4.38821 38992 ft 497 kts 114°
2026-05-05 17:13 51.56961 -4.28627 39014 ft 496 kts 114°
2026-05-05 17:14 51.54516 -4.18354 38993 ft 497 kts 106°
2026-05-05 17:14 51.53070 -4.07562 38620 ft 490 kts 100°
2026-05-05 17:15 51.52482 -4.02191 38103 ft 487 kts 100°
2026-05-05 17:15 51.51887 -3.96861 37590 ft 483 kts 100°
2026-05-05 17:15 51.51289 -3.91567 37075 ft 481 kts 100°
2026-05-05 17:15 51.50687 -3.86287 36585 ft 481 kts 100°
2026-05-05 17:16 51.50084 -3.81009 36090 ft 480 kts 100°
2026-05-05 17:16 51.49486 -3.75806 35618 ft 481 kts 101°
2026-05-05 17:16 51.48875 -3.70516 35168 ft 482 kts 101°
2026-05-05 17:16 51.48261 -3.65230 34690 ft 481 kts 101°
2026-05-05 17:17 51.47759 -3.59933 34250 ft 481 kts 95°
2026-05-05 17:17 51.47467 -3.54590 33772 ft 479 kts 95°
2026-05-05 17:17 51.47167 -3.49278 33246 ft 476 kts 95°
2026-05-05 17:17 51.46863 -3.44012 32735 ft 474 kts 96°
2026-05-05 17:18 51.46554 -3.38756 32226 ft 472 kts 96°
2026-05-05 17:18 51.46244 -3.33546 31725 ft 468 kts 96°
2026-05-05 17:18 51.45939 -3.28431 31247 ft 466 kts 97°
2026-05-05 17:18 51.45628 -3.23267 30768 ft 464 kts 97°
2026-05-05 17:19 51.45315 -3.18121 30296 ft 462 kts 97°
2026-05-05 17:19 51.45002 -3.13007 29780 ft 460 kts 97°
2026-05-05 17:19 51.44689 -3.07928 29237 ft 456 kts 97°
2026-05-05 17:19 51.44376 -3.02892 28701 ft 452 kts 97°
2026-05-05 17:20 51.44064 -2.97900 28179 ft 449 kts 97°
2026-05-05 17:20 51.43752 -2.92936 27658 ft 446 kts 97°
2026-05-05 17:20 51.43440 -2.88015 27147 ft 443 kts 97°
2026-05-05 17:20 51.43133 -2.83189 26658 ft 439 kts 97°
2026-05-05 17:21 51.42821 -2.78334 26182 ft 436 kts 97°
2026-05-05 17:21 51.42511 -2.73520 25704 ft 434 kts 97°
2026-05-05 17:21 51.42199 -2.68717 25238 ft 431 kts 97°
2026-05-05 17:22 51.41577 -2.59229 24320 ft 426 kts 97°
2026-05-05 17:22 51.41264 -2.54507 23861 ft 424 kts 97°
2026-05-05 17:22 51.40952 -2.49820 23385 ft 422 kts 97°
2026-05-05 17:22 51.40645 -2.45227 22873 ft 419 kts 97°
2026-05-05 17:23 51.40335 -2.40621 22348 ft 414 kts 97°
2026-05-05 17:23 51.40025 -2.36059 21852 ft 410 kts 96°
2026-05-05 17:23 51.39716 -2.31540 21381 ft 406 kts 96°
2026-05-05 17:23 51.39409 -2.27068 20916 ft 402 kts 96°
2026-05-05 17:24 51.39102 -2.22624 20439 ft 402 kts 96°
2026-05-05 17:24 51.38794 -2.18181 19995 ft 400 kts 96°
2026-05-05 17:24 51.38487 -2.13791 19551 ft 394 kts 96°
2026-05-05 17:24 51.38182 -2.09454 19115 ft 392 kts 96°
2026-05-05 17:25 51.37891 -2.05194 18682 ft 388 kts 94°
2026-05-05 17:25 51.37751 -2.02304 18397 ft 383 kts 93°
2026-05-05 17:25 51.37559 -1.96739 17785 ft 374 kts 92°
2026-05-05 17:25 51.37423 -1.92624 17329 ft 368 kts 92°
2026-05-05 17:26 51.37279 -1.88574 16868 ft 361 kts 92°
2026-05-05 17:26 51.37124 -1.84592 16436 ft 356 kts 93°
2026-05-05 17:26 51.36965 -1.80673 16036 ft 350 kts 93°
2026-05-05 17:26 51.36805 -1.76823 15652 ft 344 kts 93°
2026-05-05 17:27 51.36645 -1.73035 15275 ft 338 kts 93°
2026-05-05 17:27 51.36487 -1.69305 14904 ft 334 kts 93°
2026-05-05 17:27 51.36333 -1.65677 14550 ft 329 kts 93°
2026-05-05 17:27 51.36177 -1.62056 14228 ft 324 kts 93°
2026-05-05 17:28 51.36023 -1.58499 13912 ft 319 kts 93°
2026-05-05 17:28 51.35870 -1.54985 13577 ft 315 kts 94°
2026-05-05 17:28 51.35716 -1.51475 13238 ft 320 kts 93°
2026-05-05 17:28 51.35558 -1.47865 12888 ft 330 kts 93°
2026-05-05 17:29 51.35394 -1.44198 12553 ft 329 kts 93°
2026-05-05 17:29 51.35230 -1.40569 12252 ft 325 kts 93°
2026-05-05 17:29 51.35068 -1.37014 12002 ft 325 kts 93°
2026-05-05 17:29 51.34904 -1.33412 11743 ft 324 kts 93°
2026-05-05 17:30 51.34740 -1.29827 11493 ft 322 kts 93°
2026-05-05 17:30 51.34576 -1.26250 11243 ft 322 kts 93°
2026-05-05 17:30 51.34450 -1.22705 10989 ft 316 kts 85°
2026-05-05 17:30 51.34958 -1.19382 10746 ft 303 kts 63°
2026-05-05 17:31 51.35927 -1.16442 10408 ft 297 kts 60°
2026-05-05 17:31 51.36890 -1.13517 9790 ft 296 kts 60°
2026-05-05 17:31 51.37840 -1.10621 9186 ft 292 kts 60°
2026-05-05 17:31 51.38777 -1.07773 8606 ft 287 kts 60°
2026-05-05 17:32 51.39687 -1.05005 8058 ft 283 kts 60°
2026-05-05 17:32 51.40612 -1.02208 7482 ft 278 kts 60°
2026-05-05 17:32 51.41503 -0.99533 6942 ft 274 kts 60°
2026-05-05 17:32 51.42399 -0.96846 6353 ft 272 kts 60°
2026-05-05 17:33 51.43286 -0.94196 5918 ft 264 kts 60°
2026-05-05 17:33 51.44111 -0.91701 6121 ft 248 kts 60°
2026-05-05 17:33 51.44907 -0.89272 6039 ft 244 kts 60°
2026-05-05 17:33 51.45695 -0.86873 5466 ft 244 kts 60°
2026-05-05 17:34 51.46486 -0.84477 4829 ft 242 kts 60°
2026-05-05 17:34 51.47210 -0.82034 4201 ft 242 kts 70°
2026-05-05 17:34 51.47547 -0.79440 3869 ft 234 kts 82°
2026-05-05 17:34 51.47642 -0.76889 3572 ft 225 kts 86°
2026-05-05 17:35 51.47655 -0.74430 3271 ft 216 kts 88°
2026-05-05 17:35 51.47668 -0.72066 2987 ft 208 kts 87°
2026-05-05 17:35 51.47674 -0.69801 2767 ft 196 kts 87°
2026-05-05 17:35 51.47681 -0.67765 2506 ft 176 kts 87°
2026-05-05 17:36 51.47690 -0.65870 2252 ft 167 kts 87°
2026-05-05 17:36 51.47698 -0.64024 2029 ft 165 kts 87°
2026-05-05 17:36 51.47705 -0.62187 1808 ft 165 kts 87°
2026-05-05 17:36 51.47711 -0.60356 1569 ft 165 kts 87°
2026-05-05 17:37 51.47715 -0.58580 1370 ft 150 kts 87°
2026-05-05 17:37 51.47723 -0.56974 1171 ft 140 kts 87°
2026-05-05 17:37 51.47730 -0.55448 974 ft 135 kts 86°
2026-05-05 17:37 51.47736 -0.53947 792 ft 137 kts 87°
2026-05-05 17:38 51.47730 -0.52421 602 ft 137 kts 88°
2026-05-05 17:38 51.47730 -0.50878 406 ft 137 kts 87°
2026-05-05 17:38 51.47747 -0.49328 221 ft 139 kts 87°
2026-05-05 17:38 51.47750 -0.47785 97 ft 132 kts 86°
2026-05-05 17:39 51.47757 -0.46526 97 ft 92 kts 88°
2026-05-05 17:39 51.47762 -0.45658 92 ft 65 kts 89°
2026-05-05 17:39 51.47763 -0.45085 94 ft 38 kts 90°
2026-05-05 17:39 51.47744 -0.44904 95 ft 15 kts 126°
2026-05-05 17:40 51.47716 -0.44862 96 ft 7 kts 146°
2026-05-05 17:40 51.47658 -0.44802 96 ft 11 kts 153°
2026-05-05 17:40 51.47599 -0.44717 94 ft 11 kts 111°
2026-05-05 17:40 51.47541 -0.44660 94 ft 12 kts 188°
2026-05-05 17:41 51.47511 -0.44744 95 ft 11 kts 269°
2026-05-05 17:41 51.47509 -0.44891 95 ft 15 kts 269°
2026-05-05 17:41 51.47509 -0.45071 95 ft 17 kts 270°
2026-05-05 17:41 51.47509 -0.45277 95 ft 20 kts 269°
2026-05-05 17:42 51.47508 -0.45480 94 ft 14 kts 270°
2026-05-05 17:42 51.47508 -0.45636 94 ft 15 kts 270°
2026-05-05 17:42 51.47517 -0.45815 92 ft 17 kts 272°
2026-05-05 17:42 51.47518 -0.46021 94 ft 19 kts 269°
2026-05-05 17:43 51.47516 -0.46243 91 ft 21 kts 269°
2026-05-05 17:43 51.47515 -0.46457 92 ft 18 kts 270°
2026-05-05 17:43 51.47515 -0.46643 93 ft 15 kts 270°
2026-05-05 17:43 51.47496 -0.46819 94 ft 17 kts 266°
2026-05-05 17:44 51.47494 -0.46883 95 ft 6 kts 269°
2026-05-05 17:44 51.47493 -0.46981 94 ft 11 kts 269°
2026-05-05 17:44 51.47492 -0.47126 91 ft 15 kts 269°
2026-05-05 17:44 51.47491 -0.47294 91 ft 15 kts 270°
2026-05-05 17:45 51.47491 -0.47462 91 ft 14 kts 270°
2026-05-05 17:45 51.47491 -0.47609 94 ft 14 kts 270°
2026-05-05 17:45 51.47490 -0.47772 93 ft 15 kts 270°
2026-05-05 17:45 51.47464 -0.47868 94 ft 10 kts 198°
2026-05-05 17:46 51.47408 -0.47870 92 ft 5 kts 150°
2026-05-05 17:46 51.47393 -0.47813 94 ft 4 kts 86°
2026-05-05 17:46 51.47395 -0.47767 95 ft 1 kts 87°
2026-05-05 17:46 51.47395 -0.47748 95 ft 1 kts 88°
2026-05-05 17:47 51.47395 -0.47736 95 ft 1 kts 89°
2026-05-05 17:47 51.47395 -0.47734 95 ft 0 kts 89°